Flag for Chad Weather past 2 weeks in Moundou, Chad

Now
64 °F

Sunny.


Feels Like: 64 °F
Forecast: 64 / 92 °F
Wind: No wind

Location: Sarh Airport

Current Time: Dec 22, 2014 at 6:48:17 AM

Latest Report: Dec 22, 2014 at 6:00 AM


Visibility: 10 mi

Pressure: 29.92 "Hg

Humidity: 64%

Dew point: 52 °F

Location of MoundouLocation

Historic Weather in Moundou — Graph

°F

Moundou temperature yesterday

Maximum temperature yesterday: 97 °F (at 4:00 PM)
Minimum temperature yesterday: 64 °F (at 6:00 AM)
Average temperature yesterday: 78 °F

Past Weeks' High & Low Weather Summary

 TemperatureHumidityPressure
High100 °F (Dec 8, 1:00 PM)100% (Dec 9, 12:00 PM)30.01 "Hg (Dec 9, 12:00 PM)
Low63 °F (Dec 16, 6:00 AM)11% (Dec 20, 3:00 PM)29.74 "Hg (Dec 10, 4:00 PM)
Average79 °F46%29.88 "Hg
* Reported Dec 7 5:00 AM — Dec 22 5:00 AM, Moundou, Weather by CustomWeather, © 2014

Note: Actual official high and low records may vary slightly from our data, if they occured in-between our weather recording intervals... More about our weather records

Advertising

Moundou weather history for previous 24 hours

 ConditionsComfort  
Time TempWeatherWind HumidityBarometerVisibility
5:00 AM
Dec 22
64 °FClear.3 mph64%29.92 "Hg10 mi
4:00 AM64 °FClear.No wind68%29.92 "Hg10 mi
3:00 AM66 °FClear.No wind64%29.89 "Hg10 mi
2:00 AM70 °FClear.3 mph57%29.92 "Hg10 mi
12:00 AM68 °FClear.No wind64%29.89 "Hg10 mi
11:00 PM
Dec 21
70 °FClear.No wind60%29.89 "Hg10 mi
10:00 PM77 °FClear.No wind39%29.89 "Hg10 mi
9:00 PM79 °FClear.5 mph39%29.92 "Hg10 mi
8:00 PM81 °FClear.5 mph39%29.89 "Hg10 mi
7:00 PM84 °FClear.7 mph31%29.89 "Hg10 mi
6:00 PM86 °FPleasantly warm.6 mph31%29.86 "HgN/A
5:00 PM93 °FExtremely hot.5 mph24%29.83 "HgN/A
4:00 PM97 °FExtremely hot.3 mph19%29.83 "HgN/A
3:00 PM95 °FExtremely hot.6 mph18%29.83 "HgN/A
1:00 PM93 °FSunny.5 mph19%N/A10 mi
12:00 PM91 °FSunny.7 mph23%29.92 "Hg10 mi
11:00 AM86 °FSunny.5 mph27%29.95 "Hg10 mi
10:00 AM82 °FSunny.7 mph21%29.95 "Hg10 mi
9:00 AM75 °FSunny.8 mph29%29.98 "Hg10 mi
8:00 AM72 °FSunny.8 mph33%29.95 "Hg10 mi
7:00 AM66 °FMild.6 mph43%29.95 "HgN/A
6:00 AM64 °FSunny.6 mph49%29.92 "Hg10 mi
Weather by CustomWeather, © 2014

See weather overviewHow to use our weather pages